Location: Newark
(7.1028°S, 35.3258°W)
Time: 02:34:01
(UTC+00:00)

Hubble Space Telescope - Pass Details

Date: 20 January 2020
Orbit: 536 x 540 km, 28.5° (Epoch: 26 February)

Event Time Altitude Azimuth Distance (km) Brightness Sun altitude
Exits shadow 07:04:17 - 221° (SW) 2,538 4.0 -17.8°
Reaches altitude 10° 07:06:33 10° 207° (SSW) 1,785 3.4 -17.3°
Maximum altitude 07:09:47 22° 155° (SSE) 1,205 3.1 -16.5°
Drops below altitude 10° 07:13:00 10° 104° (ESE) 1,782 4.7 -15.8°
Sets 07:15:39 0° 88° (E) 2,671 5.5 -15.2°
